Regional Weather Roundup
Issued by NWS

Home | Current Version | Previous Version | Graphics & Text | Print | Product List | Glossary On
Versions: 1 2 3 4 5 6 7 8 9 10 11 12 13 14 15 16 17 18 19 20 21 22 23 24 25 26 27 28 29 30 31 32 33 34 35 36 37 38 39 40 41 42 43 44 45 46 47 48 49 50
000
ASUS45 KBOI 040510
RWRID

IDAHO REGIONAL WEATHER ROUNDUP
NATIONAL WEATHER SERVICE BOISE ID
1100 PM MDT MON AUG 03 2015

NOTE: "FAIR" INDICATES FEW OR NO CLOUDS BELOW 12000 FEET
WITH NO SIGNIFICANT WEATHER AND/OR OBSTRUCTIONS TO VISIBILITY

IDZ012-014-040600-
SOUTHWEST IDAHO


CITY           SKY/WX    TMP DP  RH WIND       PRES   REMARKS
BOISE          CLEAR     81  49  32 CALM      29.87R
CALDWELL       CLEAR     75  48  38 NW8       29.87R
MOUNTAIN HOME  CLEAR     74  48  39 E9        29.88R
$$

IDZ016-017-040600-
SOUTHCENTRAL IDAHO


CITY           SKY/WX    TMP DP  RH WIND       PRES   REMARKS
BURLEY         MOCLDY    70  51  51 S14       29.99R
JEROME         MOCLDY    70  50  49 E8        29.98R
TWIN FALLS     MOCLDY    76  49  38 S12G22    29.95R
$$

IDZ019>023-040600-
SOUTHEAST IDAHO


CITY           SKY/WX    TMP DP  RH WIND       PRES   REMARKS
IDAHO FALLS    LGT RAIN  65  53  65 E9        30.05R
POCATELLO      CLOUDY    66  58  75 E6        30.04S
REXBURG        CLOUDY    65  51  60 SE3       30.07S
$$

IDZ006-010-011-018-031-032-040600-
CENTRAL IDAHO MOUNTAINS


CITY           SKY/WX    TMP DP  RH WIND       PRES   REMARKS
MCCALL         CLOUDY    63  46  54 CALM      30.03R
HAILEY         PTCLDY    66  50  55 NW5       30.08R
STANLEY          N/A     55  40  56 S3        30.15S
SALMON         CLOUDY    77  41  27 E5        29.93F
CHALLIS        CLOUDY    71  43  36 S6        30.03F
$$

IDZ002-004-006-007-026-040600-
NORTHERN IDAHO


CITY           SKY/WX    TMP DP  RH WIND       PRES   REMARKS
LEWISTON       CLOUDY    82  46  28 CALM      29.84S
LOWELL           N/A     70  54  56 CALM      29.87R
COEUR D`ALENE  CLOUDY    79  45  29 W10       29.87R
MULLAN PASS    LGT RAIN  60  41  49 VRB5      30.08R
$$



USA.gov is the U.S. government's official web portal to all federal, state and local government web resources and services.